TimeMDT,TemperatureF,Dew PointF,Humidity,Sea Level PressureIn,VisibilityMPH,Wind Direction,Wind SpeedMPH,Gust SpeedMPH,PrecipitationIn,Events,Conditions,WindDirDegrees,DateUTC
12:53 AM,52.0,36.0,54,30.09,10.0,West,5.8,-,N/A,,Overcast,260,2013-05-10 06:53:00
1:53 AM,50.0,36.0,59,30.09,10.0,NW,11.5,-,N/A,,Scattered Clouds,310,2013-05-10 07:53:00
2:53 AM,46.9,35.1,63,30.10,10.0,West,8.1,-,N/A,,Clear,260,2013-05-10 08:53:00
3:53 AM,45.0,33.1,63,30.11,10.0,SSW,3.5,-,N/A,,Clear,200,2013-05-10 09:53:00
4:53 AM,45.0,35.1,68,30.13,10.0,SSW,3.5,-,N/A,,Clear,200,2013-05-10 10:53:00
5:53 AM,43.0,35.1,74,30.13,10.0,Calm,Calm,-,N/A,,Clear,0,2013-05-10 11:53:00
6:53 AM,46.9,35.1,63,30.14,10.0,Calm,Calm,-,N/A,,Clear,0,2013-05-10 12:53:00
7:53 AM,46.9,37.9,71,30.16,10.0,Calm,Calm,-,N/A,,Clear,0,2013-05-10 13:53:00
8:53 AM,55.0,37.0,51,30.15,10.0,ESE,3.5,-,N/A,,Clear,110,2013-05-10 14:53:00
9:53 AM,59.0,36.0,42,30.14,10.0,SSE,4.6,-,N/A,,Clear,160,2013-05-10 15:53:00
10:53 AM,63.0,35.1,35,30.13,10.0,Calm,Calm,-,N/A,,Clear,0,2013-05-10 16:53:00
11:53 AM,64.9,35.1,33,30.14,10.0,NW,3.5,-,N/A,,Clear,310,2013-05-10 17:53:00
12:53 PM,66.9,30.0,25,30.13,10.0,Variable,3.5,-,N/A,,Partly Cloudy,0,2013-05-10 18:53:00
1:53 PM,68.0,25.0,20,30.13,10.0,North,18.4,24.2,N/A,,Mostly Cloudy,360,2013-05-10 19:53:00
2:53 PM,66.0,27.0,23,30.14,10.0,Calm,Calm,-,N/A,,Mostly Cloudy,0,2013-05-10 20:53:00
3:33 PM,68.0,24.8,20,30.25,10.0,North,12.7,20.7,N/A,,Mostly Cloudy,10,2013-05-10 21:33:00
3:53 PM,70.0,24.1,18,30.12,10.0,North,13.8,-,N/A,,Scattered Clouds,360,2013-05-10 21:53:00
4:53 PM,66.9,23.0,19,30.14,10.0,NNE,13.8,-,N/A,,Partly Cloudy,30,2013-05-10 22:53:00
5:53 PM,69.1,25.0,19,30.13,10.0,NNE,16.1,24.2,N/A,,Scattered Clouds,30,2013-05-10 23:53:00
6:53 PM,63.0,32.0,31,30.17,10.0,NNE,20.7,29.9,N/A,,Mostly Cloudy,30,2013-05-11 00:53:00
7:53 PM,60.1,33.1,36,30.21,10.0,NE,11.5,21.9,N/A,,Scattered Clouds,40,2013-05-11 01:53:00
8:53 PM,59.0,33.1,38,30.21,10.0,West,4.6,-,N/A,,Mostly Cloudy,260,2013-05-11 02:53:00
9:53 PM,57.0,35.1,44,30.22,10.0,WSW,4.6,-,N/A,,Mostly Cloudy,240,2013-05-11 03:53:00
10:53 PM,55.0,35.1,47,30.23,10.0,West,8.1,-,N/A,,Mostly Cloudy,260,2013-05-11 04:53:00
11:53 PM,53.1,34.0,48,30.24,10.0,WSW,11.5,-,N/A,,Clear,250,2013-05-11 05:53:00